TimeCST,TemperatureF,Dew PointF,Humidity,Sea Level PressureIn,VisibilityMPH,Wind Direction,Wind SpeedMPH,Gust SpeedMPH,PrecipitationIn,Events,Conditions,WindDirDegrees,DateUTC
12:53 AM,30.0,25.0,82,29.98,9.0,NNW,5.8,-,N/A,,Overcast,330,2013-02-05 06:53:00
1:08 AM,30.2,24.8,80,29.97,9.0,NNW,3.5,-,N/A,,Overcast,340,2013-02-05 07:08:00
1:53 AM,30.0,24.1,79,29.98,9.0,Calm,Calm,-,N/A,,Overcast,0,2013-02-05 07:53:00
2:53 AM,30.0,24.1,79,29.97,8.0,Calm,Calm,-,N/A,,Overcast,0,2013-02-05 08:53:00
3:53 AM,28.9,24.1,82,29.97,7.0,Calm,Calm,-,N/A,,Overcast,0,2013-02-05 09:53:00
4:53 AM,28.0,25.0,88,29.98,6.0,Calm,Calm,-,N/A,,Overcast,0,2013-02-05 10:53:00
5:23 AM,28.4,24.8,86,29.97,6.0,Calm,Calm,-,N/A,,Scattered Clouds,0,2013-02-05 11:23:00
5:53 AM,28.0,25.0,88,29.98,5.0,SSE,3.5,-,N/A,,Clear,160,2013-02-05 11:53:00
6:53 AM,28.0,25.0,88,29.96,6.0,SSE,3.5,-,N/A,,Scattered Clouds,160,2013-02-05 12:53:00
7:53 AM,28.9,25.0,85,29.98,5.0,SSE,4.6,-,N/A,,Clear,160,2013-02-05 13:53:00
8:53 AM,32.0,26.1,79,29.99,7.0,SSW,5.8,-,N/A,,Scattered Clouds,200,2013-02-05 14:53:00
9:53 AM,34.0,27.0,75,29.97,-9999.0,North,-9999.0,-,N/A,,Clear,0,2013-02-05 15:53:00
10:53 AM,-9999,-9999,N/A,29.95,9.0,SSW,9.2,-,N/A,,Clear,200,2013-02-05 16:53:00
11:53 AM,42.1,30.9,65,29.94,10.0,WSW,6.9,-,N/A,,Clear,250,2013-02-05 17:53:00
12:53 PM,48.9,34.0,56,29.91,10.0,SW,8.1,-,N/A,,Clear,230,2013-02-05 18:53:00
1:53 PM,54.0,33.1,45,29.91,10.0,West,9.2,-,N/A,,Clear,260,2013-02-05 19:53:00
2:53 PM,57.0,33.1,40,29.91,10.0,West,11.5,-,N/A,,Clear,260,2013-02-05 20:53:00
3:53 PM,55.9,32.0,40,29.93,10.0,WNW,12.7,-,N/A,,Clear,300,2013-02-05 21:53:00
4:53 PM,53.1,32.0,45,29.95,10.0,NW,12.7,-,N/A,,Clear,310,2013-02-05 22:53:00
5:53 PM,48.9,32.0,52,29.98,10.0,NW,12.7,-,N/A,,Clear,320,2013-02-05 23:53:00
6:53 PM,46.0,32.0,58,30.02,10.0,NW,11.5,-,N/A,,Clear,310,2013-02-06 00:53:00
7:53 PM,45.0,30.9,58,30.05,10.0,WNW,5.8,-,N/A,,Clear,300,2013-02-06 01:53:00
8:53 PM,42.1,30.9,65,30.09,10.0,North,6.9,-,N/A,,Clear,350,2013-02-06 02:53:00
9:53 PM,41.0,30.9,67,30.13,10.0,North,12.7,-,N/A,,Clear,360,2013-02-06 03:53:00
10:53 PM,36.0,28.9,76,30.13,10.0,Calm,Calm,-,N/A,,Clear,0,2013-02-06 04:53:00
11:53 PM,36.0,28.9,76,30.15,10.0,Calm,Calm,-,N/A,,Clear,0,2013-02-06 05:53:00